Time,TemperatureF,DewpointF,PressureIn,WindDirection,WindDirectionDegrees,WindSpeedMPH,WindSpeedGustMPH,Humidity,HourlyPrecipIn,Conditions,Clouds,dailyrainin,SoftwareType,DateUTC
2013-04-21 00:00:00,39.6,22.4,30.30,SSW,202,0.7,3.5,50,0.00,OVC,FEW,0.00,WeatherDisplay:10.37,2013-04-21 05:00:00,
2013-04-21 00:06:00,39.6,22.4,30.30,East,90,1.6,3.1,50,0.00,OVC,FEW,0.00,WeatherDisplay:10.37,2013-04-21 05:06:00,
2013-04-21 00:11:00,39.6,22.4,30.30,SE,135,1.6,3.1,50,0.00,OVC,FEW,0.00,WeatherDisplay:10.37,2013-04-21 05:11:00,
2013-04-21 00:17:00,39.6,22.4,30.30,SE,135,2.2,5.8,50,0.00,OVC,FEW,0.00,WeatherDisplay:10.37,2013-04-21 05:17:00,
2013-04-21 00:22:00,39.9,22.8,30.30,SE,135,2.2,4.5,50,0.00,OVC,FEW,0.00,WeatherDisplay:10.37,2013-04-21 05:22:00,
2013-04-21 00:28:00,39.9,22.8,30.30,SE,135,0.7,3.5,50,0.00,OVC,FEW,0.00,WeatherDisplay:10.37,2013-04-21 05:28:00,
2013-04-21 00:34:00,39.7,23.1,30.30,NE,45,0.0,3.5,51,0.00,OVC,FEW,0.00,WeatherDisplay:10.37,2013-04-21 05:34:00,
2013-04-21 00:39:00,39.7,23.1,30.30,East,90,2.2,3.8,51,0.00,OVC,FEW,0.00,WeatherDisplay:10.37,2013-04-21 05:39:00,
2013-04-21 00:45:00,39.6,22.9,30.30,East,90,1.6,3.5,51,0.00,OVC,FEW,0.00,WeatherDisplay:10.37,2013-04-21 05:45:00,
2013-04-21 00:50:00,39.4,23.2,30.31,East,90,0.0,1.2,52,0.00,OVC,FEW,0.00,WeatherDisplay:10.37,2013-04-21 05:50:00,
2013-04-21 00:56:00,39.4,23.2,30.31,East,90,0.7,4.6,52,0.00,OVC,FEW,0.00,WeatherDisplay:10.37,2013-04-21 05:56:00,
2013-04-21 01:02:00,39.2,23.5,30.31,SE,135,0.0,2.3,53,0.00,OVC,FEW,0.00,WeatherDisplay:10.37,2013-04-21 06:02:00,
2013-04-21 01:07:00,39.0,23.3,30.31,South,180,1.6,2.3,53,0.00,OVC,FEW,0.00,WeatherDisplay:10.37,2013-04-21 06:07:00,
2013-04-21 01:13:00,39.0,23.3,30.31,SE,135,0.7,3.5,53,0.00,OVC,FEW,0.00,WeatherDisplay:10.37,2013-04-21 06:13:00,
2013-04-21 01:18:00,38.8,23.2,30.31,East,90,1.6,3.5,53,0.00,OVC,FEW,0.00,WeatherDisplay:10.37,2013-04-21 06:18:00,
2013-04-21 01:24:00,39.0,23.3,30.31,East,90,1.6,3.5,53,0.00,OVC,FEW,0.00,WeatherDisplay:10.37,2013-04-21 06:24:00,
2013-04-21 01:30:00,38.8,23.6,30.31,East,90,0.7,3.8,54,0.00,OVC,FEW,0.00,WeatherDisplay:10.37,2013-04-21 06:30:00,
2013-04-21 01:35:00,38.7,23.4,30.31,NE,45,0.0,3.5,54,0.00,OVC,FEW,0.00,WeatherDisplay:10.37,2013-04-21 06:35:00,
2013-04-21 01:41:00,38.7,23.9,30.31,East,90,1.6,3.5,55,0.00,OVC,FEW,0.00,WeatherDisplay:10.37,2013-04-21 06:41:00,
2013-04-21 01:46:00,38.5,23.7,30.31,East,90,0.0,3.5,55,0.00,OVC,FEW,0.00,WeatherDisplay:10.37,2013-04-21 06:46:00,
2013-04-21 01:52:00,38.5,24.1,30.30,East,90,0.0,1.6,56,0.00,OVC,FEW,0.00,WeatherDisplay:10.37,2013-04-21 06:52:00,
2013-04-21 01:58:00,38.7,24.3,30.30,East,90,2.2,6.0,56,0.00,OVC,FEW,0.00,WeatherDisplay:10.37,2013-04-21 06:58:00,
2013-04-21 02:03:00,38.5,24.6,30.30,East,90,2.2,5.8,57,0.00,OVC,FEW,0.00,WeatherDisplay:10.37,2013-04-21 07:03:00,
2013-04-21 02:09:00,38.7,24.7,30.30,East,90,1.6,4.6,57,0.00,OVC,FEW,0.00,WeatherDisplay:10.37,2013-04-21 07:09:00,
2013-04-21 02:14:00,38.7,24.7,30.30,SE,135,3.1,6.9,57,0.00,OVC,FEW,0.00,WeatherDisplay:10.37,2013-04-21 07:14:00,
2013-04-21 02:20:00,38.8,24.9,30.30,East,90,1.6,3.5,57,0.00,OVC,FEW,0.00,WeatherDisplay:10.37,2013-04-21 07:20:00,
2013-04-21 02:26:00,38.8,24.9,30.30,East,90,1.6,6.9,57,0.00,OVC,FEW,0.00,WeatherDisplay:10.37,2013-04-21 07:26:00,
2013-04-21 02:31:00,38.8,24.9,30.30,SE,135,1.6,4.6,57,0.00,OVC,FEW,0.00,WeatherDisplay:10.37,2013-04-21 07:31:00,
2013-04-21 02:37:00,38.7,24.7,30.30,SW,225,0.0,5.8,57,0.00,OVC,FEW,0.00,WeatherDisplay:10.37,2013-04-21 07:37:00,
2013-04-21 02:42:00,38.8,24.9,30.29,ESE,112,2.2,5.8,57,0.00,OVC,FEW,0.00,WeatherDisplay:10.37,2013-04-21 07:42:00,
2013-04-21 02:48:00,39.0,25.1,30.29,SE,135,1.6,5.8,57,0.00,OVC,FEW,0.00,WeatherDisplay:10.37,2013-04-21 07:48:00,
2013-04-21 02:54:00,39.0,25.1,30.30,East,90,3.8,6.9,57,0.00,OVC,FEW,0.00,WeatherDisplay:10.37,2013-04-21 07:54:00,
2013-04-21 02:59:00,39.2,24.8,30.29,SE,135,2.2,5.8,56,0.00,OVC,FEW,0.00,WeatherDisplay:10.37,2013-04-21 07:59:00,
2013-04-21 03:05:00,39.4,25.0,30.29,SE,135,3.8,5.8,56,0.00,OVC,FEW,0.00,WeatherDisplay:10.37,2013-04-21 08:05:00,
2013-04-21 03:10:00,39.4,25.0,30.29,East,90,3.8,7.6,56,0.00,OVC,FEW,0.00,WeatherDisplay:10.37,2013-04-21 08:10:00,
2013-04-21 03:16:00,39.4,25.0,30.29,SE,135,1.6,5.8,56,0.00,OVC,FEW,0.00,WeatherDisplay:10.37,2013-04-21 08:16:00,
2013-04-21 03:22:00,39.4,25.0,30.29,East,90,3.8,6.9,56,0.00,OVC,FEW,0.00,WeatherDisplay:10.37,2013-04-21 08:22:00,
2013-04-21 03:27:00,39.4,25.0,30.29,SE,135,4.5,6.9,56,0.00,OVC,FEW,0.00,WeatherDisplay:10.37,2013-04-21 08:27:00,
2013-04-21 03:33:00,39.4,25.4,30.28,East,90,1.6,3.5,57,0.00,OVC,FEW,0.00,WeatherDisplay:10.37,2013-04-21 08:33:00,
2013-04-21 03:38:00,39.4,25.0,30.28,SE,135,2.2,8.1,56,0.00,OVC,FEW,0.00,WeatherDisplay:10.37,2013-04-21 08:38:00,
2013-04-21 03:44:00,39.4,25.4,30.28,South,180,0.7,5.8,57,0.00,OVC,FEW,0.00,WeatherDisplay:10.37,2013-04-21 08:44:00,
2013-04-21 03:50:00,39.4,25.8,30.29,SE,135,1.6,4.6,58,0.00,OVC,FEW,0.00,WeatherDisplay:10.37,2013-04-21 08:50:00,
2013-04-21 03:55:00,39.4,25.4,30.28,East,90,2.2,5.8,57,0.00,OVC,FEW,0.00,WeatherDisplay:10.37,2013-04-21 08:55:00,
2013-04-21 04:01:00,39.4,25.4,30.29,East,90,0.7,8.1,57,0.00,OVC,FEW,0.00,WeatherDisplay:10.37,2013-04-21 09:01:00,
2013-04-21 04:06:00,39.2,25.6,30.28,East,90,1.6,5.8,58,0.00,OVC,FEW,0.00,WeatherDisplay:10.37,2013-04-21 09:06:00,
2013-04-21 04:12:00,39.4,25.8,30.28,SE,135,3.1,6.9,58,0.00,OVC,FEW,0.00,WeatherDisplay:10.37,2013-04-21 09:12:00,
2013-04-21 04:18:00,39.4,25.8,30.28,East,90,3.1,6.9,58,0.00,OVC,FEW,0.00,WeatherDisplay:10.37,2013-04-21 09:18:00,
2013-04-21 04:23:00,39.2,25.6,30.28,NE,45,3.1,9.2,58,0.00,OVC,FEW,0.00,WeatherDisplay:10.37,2013-04-21 09:23:00,
2013-04-21 04:29:00,39.4,25.4,30.28,South,180,6.0,12.7,57,0.00,OVC,FEW,0.00,WeatherDisplay:10.37,2013-04-21 09:29:00,
2013-04-21 04:34:00,39.4,25.4,30.28,SSE,158,1.6,6.9,57,0.00,OVC,FEW,0.00,WeatherDisplay:10.37,2013-04-21 09:34:00,
2013-04-21 04:40:00,39.4,25.8,30.28,North,0,2.2,6.0,58,0.00,OVC,FEW,0.00,WeatherDisplay:10.37,2013-04-21 09:40:00,
2013-04-21 04:46:00,39.2,25.6,30.29,North,0,2.2,5.8,58,0.00,OVC,FEW,0.00,WeatherDisplay:10.37,2013-04-21 09:46:00,
2013-04-21 04:51:00,39.2,25.6,30.29,South,180,4.5,5.8,58,0.00,OVC,FEW,0.00,WeatherDisplay:10.37,2013-04-21 09:51:00,
2013-04-21 04:57:00,39.2,25.6,30.29,SE,135,5.4,9.2,58,0.00,OVC,FEW,0.00,WeatherDisplay:10.37,2013-04-21 09:57:00,
2013-04-21 05:02:00,39.4,25.4,30.29,East,90,3.8,5.8,57,0.00,OVC,FEW,0.00,WeatherDisplay:10.37,2013-04-21 10:02:00,
2013-04-21 05:08:00,39.4,25.4,30.29,SE,135,0.0,3.5,57,0.00,OVC,FEW,0.00,WeatherDisplay:10.37,2013-04-21 10:08:00,
2013-04-21 05:14:00,39.4,25.4,30.30,SE,135,2.2,5.8,57,0.00,OVC,FEW,0.00,WeatherDisplay:10.37,2013-04-21 10:14:00,
2013-04-21 05:19:00,39.4,25.8,30.30,South,180,2.2,5.8,58,0.00,OVC,FEW,0.00,WeatherDisplay:10.37,2013-04-21 10:19:00,
2013-04-21 05:25:00,39.4,25.8,30.30,SE,135,2.2,5.8,58,0.00,OVC,FEW,0.00,WeatherDisplay:10.37,2013-04-21 10:25:00,
2013-04-21 05:30:00,39.4,25.8,30.30,East,90,3.1,6.9,58,0.00,OVC,FEW,0.00,WeatherDisplay:10.37,2013-04-21 10:30:00,
2013-04-21 05:36:00,39.4,25.8,30.30,South,180,2.2,5.4,58,0.00,OVC,FEW,0.00,WeatherDisplay:10.37,2013-04-21 10:36:00,
2013-04-21 05:42:00,39.2,25.6,30.30,South,180,3.1,7.6,58,0.00,OVC,FEW,0.00,WeatherDisplay:10.37,2013-04-21 10:42:00,
2013-04-21 05:47:00,39.2,25.6,30.30,SE,135,2.2,8.1,58,0.00,OVC,FEW,0.00,WeatherDisplay:10.37,2013-04-21 10:47:00,
2013-04-21 05:53:00,39.2,25.6,30.31,SE,135,2.2,6.9,58,0.00,OVC,FEW,0.00,WeatherDisplay:10.37,2013-04-21 10:53:00,
2013-04-21 05:58:00,39.2,25.6,30.31,SE,135,4.5,7.6,58,0.00,OVC,FEW,0.00,WeatherDisplay:10.37,2013-04-21 10:58:00,
2013-04-21 06:04:00,39.2,25.6,30.32,SE,135,3.1,8.1,58,0.00,OVC,FEW,0.00,WeatherDisplay:10.37,2013-04-21 11:04:00,
2013-04-21 06:10:00,39.2,25.6,30.32,ESE,112,2.2,5.8,58,0.00,OVC,FEW,0.00,WeatherDisplay:10.37,2013-04-21 11:10:00,
2013-04-21 06:15:00,39.0,25.9,30.32,SE,135,2.2,5.8,59,0.00,OVC,FEW,0.00,WeatherDisplay:10.37,2013-04-21 11:15:00,
2013-04-21 06:21:00,39.0,25.9,30.32,NW,315,3.1,6.9,59,0.00,OVC,FEW,0.00,WeatherDisplay:10.37,2013-04-21 11:21:00,
2013-04-21 06:26:00,39.0,25.9,30.33,SE,135,0.7,6.9,59,0.00,OVC,FEW,0.00,WeatherDisplay:10.37,2013-04-21 11:26:00,
2013-04-21 06:32:00,39.0,25.9,30.33,SE,135,0.7,5.8,59,0.00,OVC,FEW,0.00,WeatherDisplay:10.37,2013-04-21 11:32:00,
2013-04-21 06:38:00,39.0,26.3,30.33,East,90,3.1,6.9,60,0.00,OVC,FEW,0.00,WeatherDisplay:10.37,2013-04-21 11:38:00,
2013-04-21 06:43:00,39.0,25.9,30.33,SE,135,3.1,5.8,59,0.00,OVC,FEW,0.00,WeatherDisplay:10.37,2013-04-21 11:43:00,
2013-04-21 06:49:00,39.0,26.3,30.34,SW,225,3.1,8.1,60,0.00,OVC,FEW,0.00,WeatherDisplay:10.37,2013-04-21 11:49:00,
2013-04-21 06:54:00,39.0,26.3,30.34,SE,135,1.6,4.6,60,0.00,OVC,FEW,0.00,WeatherDisplay:10.37,2013-04-21 11:54:00,
2013-04-21 07:00:00,39.0,26.3,30.34,East,90,0.7,5.8,60,0.00,OVC,FEW,0.00,WeatherDisplay:10.37,2013-04-21 12:00:00,
2013-04-21 07:06:00,39.2,26.5,30.34,South,180,2.2,3.5,60,0.00,OVC,FEW,0.00,WeatherDisplay:10.37,2013-04-21 12:06:00,
2013-04-21 07:11:00,39.2,26.5,30.34,SE,135,1.6,5.8,60,0.00,OVC,FEW,0.00,WeatherDisplay:10.37,2013-04-21 12:11:00,
2013-04-21 07:17:00,39.6,26.4,30.34,SE,135,3.1,5.8,59,0.00,OVC,FEW,0.00,WeatherDisplay:10.37,2013-04-21 12:17:00,
2013-04-21 07:22:00,39.7,26.6,30.34,East,90,1.6,3.8,59,0.00,OVC,FEW,0.00,WeatherDisplay:10.37,2013-04-21 12:22:00,
2013-04-21 07:28:00,39.7,25.7,30.35,SSE,158,2.2,8.1,57,0.00,OVC,FEW,0.00,WeatherDisplay:10.37,2013-04-21 12:28:00,
2013-04-21 07:34:00,40.1,26.1,30.36,ESE,112,4.5,6.9,57,0.00,OVC,FEW,0.00,WeatherDisplay:10.37,2013-04-21 12:34:00,
2013-04-21 07:39:00,40.3,26.2,30.35,South,180,3.1,5.8,57,0.00,OVC,FEW,0.00,WeatherDisplay:10.37,2013-04-21 12:39:00,
2013-04-21 07:45:00,40.5,26.0,30.35,SE,135,1.6,5.8,56,0.00,OVC,FEW,0.00,WeatherDisplay:10.37,2013-04-21 12:45:00,
2013-04-21 07:50:00,40.6,26.2,30.36,SSE,158,3.1,6.9,56,0.00,OVC,FEW,0.00,WeatherDisplay:10.37,2013-04-21 12:50:00,
2013-04-21 07:56:00,40.6,26.2,30.36,SE,135,2.2,8.1,56,0.00,OVC,FEW,0.00,WeatherDisplay:10.37,2013-04-21 12:56:00,
2013-04-21 08:02:00,40.6,26.6,30.36,NE,45,2.2,5.8,57,0.00,OVC,FEW,0.00,WeatherDisplay:10.37,2013-04-21 13:02:00,
2013-04-21 08:07:00,40.5,26.0,30.36,SE,135,3.8,10.4,56,0.00,OVC,FEW,0.00,WeatherDisplay:10.37,2013-04-21 13:07:00,
2013-04-21 08:13:00,40.5,26.4,30.36,SE,135,3.1,6.9,57,0.00,OVC,FEW,0.00,WeatherDisplay:10.37,2013-04-21 13:13:00,
2013-04-21 08:18:00,40.8,26.7,30.36,East,90,3.1,6.0,57,0.00,OVC,FEW,0.00,WeatherDisplay:10.37,2013-04-21 13:18:00,
2013-04-21 08:24:00,40.8,26.7,30.36,East,90,1.6,8.1,57,0.00,OVC,FEW,0.00,WeatherDisplay:10.37,2013-04-21 13:24:00,
2013-04-21 08:30:00,41.0,26.5,30.35,SE,135,3.1,6.9,56,0.00,OVC,FEW,0.00,WeatherDisplay:10.37,2013-04-21 13:30:00,
2013-04-21 08:35:00,41.2,26.2,30.36,South,180,3.8,9.2,55,0.00,OVC,FEW,0.00,WeatherDisplay:10.37,2013-04-21 13:35:00,
2013-04-21 08:41:00,41.2,26.7,30.35,SE,135,2.2,5.8,56,0.00,OVC,FEW,0.00,WeatherDisplay:10.37,2013-04-21 13:41:00,
2013-04-21 08:46:00,41.4,26.8,30.36,SW,225,1.6,4.6,56,0.00,OVC,FEW,0.00,WeatherDisplay:10.37,2013-04-21 13:46:00,
2013-04-21 08:52:00,41.5,26.6,30.36,South,180,1.6,4.6,55,0.00,OVC,FEW,0.00,WeatherDisplay:10.37,2013-04-21 13:52:00,
2013-04-21 08:58:00,41.9,25.5,30.36,SE,135,5.4,9.2,52,0.00,OVC,FEW,0.00,WeatherDisplay:10.37,2013-04-21 13:58:00,
2013-04-21 09:03:00,42.3,26.3,30.35,South,180,3.8,6.9,53,0.00,OVC,FEW,0.00,WeatherDisplay:10.37,2013-04-21 14:03:00,
2013-04-21 09:09:00,42.4,25.6,30.35,East,90,5.4,12.7,51,0.00,OVC,FEW,0.00,WeatherDisplay:10.37,2013-04-21 14:09:00,
2013-04-21 09:14:00,42.8,25.9,30.34,East,90,2.2,6.9,51,0.00,OVC,FEW,0.00,WeatherDisplay:10.37,2013-04-21 14:14:00,
2013-04-21 09:20:00,43.7,25.8,30.34,South,180,5.4,9.2,49,0.00,OVC,FEW,0.00,WeatherDisplay:10.37,2013-04-21 14:20:00,
2013-04-21 09:26:00,44.6,25.6,30.34,SE,135,3.8,11.5,47,0.00,OVC,FEW,0.00,WeatherDisplay:10.37,2013-04-21 14:26:00,
2013-04-21 09:31:00,44.6,26.1,30.34,SSE,158,3.1,10.4,48,0.00,OVC,FEW,0.00,WeatherDisplay:10.37,2013-04-21 14:31:00,
2013-04-21 09:37:00,45.3,25.2,30.34,SE,135,4.5,12.7,45,0.00,OVC,FEW,0.00,WeatherDisplay:10.37,2013-04-21 14:37:00,
2013-04-21 09:42:00,45.3,25.2,30.34,SE,135,7.6,12.7,45,0.00,OVC,FEW,0.00,WeatherDisplay:10.37,2013-04-21 14:42:00,
2013-04-21 09:48:00,45.0,25.4,30.34,South,180,6.0,13.8,46,0.00,OVC,FEW,0.00,WeatherDisplay:10.37,2013-04-21 14:48:00,
2013-04-21 09:54:00,47.1,27.4,30.34,East,90,3.1,8.1,46,0.00,OVC,FEW,0.00,WeatherDisplay:10.37,2013-04-21 14:54:00,
2013-04-21 09:59:00,46.8,25.4,30.34,SE,135,5.4,11.4,43,0.00,OVC,FEW,0.00,WeatherDisplay:10.37,2013-04-21 14:59:00,
2013-04-21 10:05:00,45.7,25.5,30.33,SE,135,4.5,12.7,45,0.00,OVC,FEW,0.00,WeatherDisplay:10.37,2013-04-21 15:05:00,
2013-04-21 10:10:00,45.9,26.2,30.33,NW,315,6.0,10.7,46,0.00,OVC,FEW,0.00,WeatherDisplay:10.37,2013-04-21 15:10:00,
2013-04-21 10:16:00,47.5,26.6,30.34,South,180,3.8,9.2,44,0.00,OVC,FEW,0.00,WeatherDisplay:10.37,2013-04-21 15:16:00,
2013-04-21 10:22:00,49.8,28.8,30.33,East,90,2.2,6.9,44,0.00,OVC,FEW,0.00,WeatherDisplay:10.37,2013-04-21 15:22:00,
2013-04-21 10:27:00,50.2,26.8,30.33,SW,225,5.4,11.5,40,0.00,OVC,FEW,0.00,WeatherDisplay:10.37,2013-04-21 15:27:00,
2013-04-21 10:33:00,50.0,26.6,30.33,SE,135,6.9,10.7,40,0.00,OVC,FEW,0.00,WeatherDisplay:10.37,2013-04-21 15:33:00,
2013-04-21 10:38:00,49.3,26.0,30.33,SE,135,4.5,9.2,40,0.00,OVC,FEW,0.00,WeatherDisplay:10.37,2013-04-21 15:38:00,
2013-04-21 10:44:00,48.6,27.1,30.33,SE,135,4.5,11.5,43,0.00,OVC,FEW,0.00,WeatherDisplay:10.37,2013-04-21 15:44:00,
2013-04-21 10:50:00,50.2,28.5,30.33,SE,135,3.1,6.9,43,0.00,OVC,FEW,0.00,WeatherDisplay:10.37,2013-04-21 15:50:00,
2013-04-21 10:55:00,50.7,27.2,30.32,SE,135,3.8,10.4,40,0.00,OVC,FEW,0.00,WeatherDisplay:10.37,2013-04-21 15:55:00,
2013-04-21 11:01:00,49.5,26.1,30.32,South,180,6.9,10.4,40,0.00,OVC,FEW,0.00,WeatherDisplay:10.37,2013-04-21 16:01:00,
2013-04-21 11:06:00,48.2,26.2,30.32,East,90,4.5,12.7,42,0.00,OVC,FEW,0.00,WeatherDisplay:10.37,2013-04-21 16:06:00,
2013-04-21 11:12:00,48.4,27.4,30.32,SW,225,1.6,12.7,44,0.00,OVC,FEW,0.00,WeatherDisplay:10.37,2013-04-21 16:12:00,
2013-04-21 11:18:00,48.7,27.8,30.31,SE,135,2.2,8.1,44,0.00,OVC,FEW,0.00,WeatherDisplay:10.37,2013-04-21 16:18:00,
2013-04-21 11:23:00,50.0,28.4,30.32,South,180,3.1,9.2,43,0.00,OVC,FEW,0.00,WeatherDisplay:10.37,2013-04-21 16:23:00,
2013-04-21 11:29:00,51.6,28.1,30.31,NE,45,4.5,12.7,40,0.00,OVC,FEW,0.00,WeatherDisplay:10.37,2013-04-21 16:29:00,
2013-04-21 11:34:00,51.8,28.2,30.30,SW,225,4.5,15.0,40,0.00,OVC,FEW,0.00,WeatherDisplay:10.37,2013-04-21 16:34:00,
2013-04-21 11:40:00,52.3,29.9,30.30,South,180,1.6,12.7,42,0.00,OVC,FEW,0.00,WeatherDisplay:10.37,2013-04-21 16:40:00,
2013-04-21 11:46:00,52.9,28.6,30.30,SSE,158,5.4,12.7,39,0.00,OVC,FEW,0.00,WeatherDisplay:10.37,2013-04-21 16:46:00,
2013-04-21 11:51:00,53.4,29.1,30.30,SE,135,4.5,8.1,39,0.00,OVC,FEW,0.00,WeatherDisplay:10.37,2013-04-21 16:51:00,
2013-04-21 11:57:00,53.8,28.7,30.30,SE,135,8.3,11.5,38,0.00,OVC,FEW,0.00,WeatherDisplay:10.37,2013-04-21 16:57:00,
2013-04-21 12:02:00,54.1,29.7,30.30,East,90,3.8,15.0,39,0.00,OVC,FEW,0.00,WeatherDisplay:10.37,2013-04-21 17:02:00,
2013-04-21 12:08:00,54.5,28.7,30.29,SW,225,3.1,8.1,37,0.00,OVC,FEW,0.00,WeatherDisplay:10.37,2013-04-21 17:08:00,
2013-04-21 12:14:00,55.0,29.9,30.29,ESE,112,4.5,10.4,38,0.00,OVC,FEW,0.00,WeatherDisplay:10.37,2013-04-21 17:14:00,
2013-04-21 12:19:00,55.2,29.4,30.29,SE,135,3.8,6.0,37,0.00,OVC,FEW,0.00,WeatherDisplay:10.37,2013-04-21 17:19:00,
2013-04-21 12:25:00,55.6,29.7,30.29,SE,135,4.5,10.4,37,0.00,OVC,FEW,0.00,WeatherDisplay:10.37,2013-04-21 17:25:00,
2013-04-21 12:30:00,55.4,28.2,30.28,East,90,4.5,11.5,35,0.00,OVC,FEW,0.00,WeatherDisplay:10.37,2013-04-21 17:30:00,
2013-04-21 12:36:00,54.7,28.9,30.28,SE,135,3.8,12.7,37,0.00,OVC,FEW,0.00,WeatherDisplay:10.37,2013-04-21 17:36:00,
2013-04-21 12:42:00,55.9,29.3,30.28,East,90,4.5,10.7,36,0.00,OVC,FEW,0.00,WeatherDisplay:10.37,2013-04-21 17:42:00,
2013-04-21 12:47:00,56.1,29.5,30.28,SSE,158,5.4,10.4,36,0.00,OVC,FEW,0.00,WeatherDisplay:10.37,2013-04-21 17:47:00,
2013-04-21 12:53:00,56.7,30.0,30.28,SE,135,4.5,10.4,36,0.00,OVC,FEW,0.00,WeatherDisplay:10.37,2013-04-21 17:53:00,
2013-04-21 12:58:00,54.3,28.6,30.28,SE,135,4.5,8.3,37,0.00,OVC,FEW,0.00,WeatherDisplay:10.37,2013-04-21 17:58:00,
2013-04-21 13:04:00,53.4,29.7,30.27,SW,225,3.8,11.5,40,0.00,OVC,FEW,0.00,WeatherDisplay:10.37,2013-04-21 18:04:00,
2013-04-21 13:10:00,54.9,31.6,30.27,East,90,3.8,11.5,41,0.00,OVC,FEW,0.00,WeatherDisplay:10.37,2013-04-21 18:10:00,
2013-04-21 13:15:00,56.8,30.8,30.26,East,90,2.2,9.2,37,0.00,OVC,FEW,0.00,WeatherDisplay:10.37,2013-04-21 18:15:00,
2013-04-21 13:21:00,56.7,31.3,30.26,East,90,4.5,8.1,38,0.00,OVC,FEW,0.00,WeatherDisplay:10.37,2013-04-21 18:21:00,
2013-04-21 13:26:00,55.8,31.2,30.26,SE,135,4.5,10.4,39,0.00,OVC,FEW,0.00,WeatherDisplay:10.37,2013-04-21 18:26:00,
2013-04-21 13:32:00,54.9,30.3,30.26,South,180,3.8,10.4,39,0.00,OVC,FEW,0.00,WeatherDisplay:10.37,2013-04-21 18:32:00,
2013-04-21 13:38:00,55.0,32.3,30.26,East,90,0.7,5.8,42,0.00,OVC,FEW,0.00,WeatherDisplay:10.37,2013-04-21 18:38:00,
2013-04-21 13:43:00,57.0,33.5,30.25,NE,45,1.6,5.4,41,0.00,OVC,FEW,0.00,WeatherDisplay:10.37,2013-04-21 18:43:00,
2013-04-21 13:49:00,59.4,33.1,30.25,SE,135,5.4,11.5,37,0.00,OVC,FEW,0.00,WeatherDisplay:10.37,2013-04-21 18:49:00,
2013-04-21 13:54:00,59.2,32.2,30.25,SE,135,5.4,10.7,36,0.00,OVC,FEW,0.00,WeatherDisplay:10.37,2013-04-21 18:54:00,
2013-04-21 14:00:00,59.0,32.7,30.25,SE,135,4.5,8.1,37,0.00,OVC,FEW,0.00,WeatherDisplay:10.37,2013-04-21 19:00:00,
2013-04-21 14:06:00,57.2,33.1,30.25,South,180,0.7,6.9,40,0.00,OVC,FEW,0.00,WeatherDisplay:10.37,2013-04-21 19:06:00,
2013-04-21 14:11:00,56.5,32.4,30.24,SE,135,4.5,10.4,40,0.00,OVC,FEW,0.00,WeatherDisplay:10.37,2013-04-21 19:11:00,
2013-04-21 14:17:00,56.7,32.6,30.25,SE,135,4.5,10.4,40,0.00,OVC,FEW,0.00,WeatherDisplay:10.37,2013-04-21 19:17:00,
2013-04-21 14:22:00,56.5,33.6,30.23,East,90,3.8,10.4,42,0.00,OVC,FEW,0.00,WeatherDisplay:10.37,2013-04-21 19:22:00,
2013-04-21 14:28:00,58.3,34.7,30.23,East,90,6.0,11.5,41,0.00,OVC,FEW,0.00,WeatherDisplay:10.37,2013-04-21 19:28:00,
2013-04-21 14:34:00,59.5,34.5,30.23,East,90,3.1,8.1,39,0.00,OVC,FEW,0.00,WeatherDisplay:10.37,2013-04-21 19:34:00,
2013-04-21 14:39:00,59.7,34.7,30.23,South,180,3.8,12.7,39,0.00,OVC,FEW,0.00,WeatherDisplay:10.37,2013-04-21 19:39:00,
2013-04-21 14:45:00,60.4,34.0,30.23,SE,135,3.1,13.8,37,0.00,OVC,FEW,0.00,WeatherDisplay:10.37,2013-04-21 19:45:00,
2013-04-21 14:50:00,60.4,34.0,30.22,SE,135,3.1,9.2,37,0.00,OVC,FEW,0.00,WeatherDisplay:10.37,2013-04-21 19:50:00,
2013-04-21 14:56:00,61.2,34.7,30.22,South,180,3.8,10.4,37,0.00,OVC,FEW,0.00,WeatherDisplay:10.37,2013-04-21 19:56:00,
2013-04-21 15:02:00,61.0,34.5,30.22,East,90,3.1,10.4,37,0.00,OVC,FEW,0.00,WeatherDisplay:10.37,2013-04-21 20:02:00,
2013-04-21 15:07:00,61.3,36.2,30.22,NE,45,3.1,5.8,39,0.00,OVC,FEW,0.00,WeatherDisplay:10.37,2013-04-21 20:07:00,
2013-04-21 15:13:00,61.7,34.5,30.21,South,180,3.8,10.4,36,0.00,OVC,FEW,0.00,WeatherDisplay:10.37,2013-04-21 20:13:00,
2013-04-21 15:18:00,61.7,35.8,30.21,East,90,3.1,5.8,38,0.00,OVC,FEW,0.00,WeatherDisplay:10.37,2013-04-21 20:18:00,
2013-04-21 15:24:00,61.7,35.8,30.21,East,90,3.1,5.8,38,0.00,OVC,FEW,0.00,WeatherDisplay:10.37,2013-04-21 20:24:00,
2013-04-21 15:30:00,62.8,35.4,30.21,ENE,68,4.5,4.6,36,0.00,OVC,FEW,0.00,WeatherDisplay:10.37,2013-04-21 20:30:00,
2013-04-21 15:35:00,62.4,35.8,30.20,ESE,112,2.2,3.5,37,0.00,OVC,FEW,0.00,WeatherDisplay:10.37,2013-04-21 20:35:00,
2013-04-21 15:41:00,61.7,35.8,30.20,East,90,3.8,5.8,38,0.00,OVC,FEW,0.00,WeatherDisplay:10.37,2013-04-21 20:41:00,
2013-04-21 15:46:00,61.7,35.1,30.20,SSE,158,5.4,10.7,37,0.00,OVC,FEW,0.00,WeatherDisplay:10.37,2013-04-21 20:46:00,
2013-04-21 15:52:00,61.7,35.8,30.19,ESE,112,3.8,8.1,38,0.00,OVC,FEW,0.00,WeatherDisplay:10.37,2013-04-21 20:52:00,
2013-04-21 15:58:00,61.7,35.8,30.19,ESE,112,3.8,8.1,38,0.00,OVC,FEW,0.00,WeatherDisplay:10.37,2013-04-21 20:58:00,
2013-04-21 16:03:00,61.5,35.7,30.19,NW,315,3.1,6.9,38,0.00,OVC,FEW,0.00,WeatherDisplay:10.37,2013-04-21 21:03:00,
2013-04-21 16:09:00,62.2,35.6,30.19,SE,135,4.5,8.3,37,0.00,OVC,FEW,0.00,WeatherDisplay:10.37,2013-04-21 21:09:00,
2013-04-21 16:14:00,62.4,37.1,30.19,South,180,2.2,8.1,39,0.00,OVC,FEW,0.00,WeatherDisplay:10.37,2013-04-21 21:14:00,
2013-04-21 16:20:00,62.4,35.8,30.19,East,90,3.1,9.2,37,0.00,OVC,FEW,0.00,WeatherDisplay:10.37,2013-04-21 21:20:00,
2013-04-21 16:26:00,63.3,37.3,30.19,South,180,0.7,5.8,38,0.00,OVC,FEW,0.00,WeatherDisplay:10.37,2013-04-21 21:26:00,
2013-04-21 16:31:00,63.3,37.3,30.18,East,90,0.7,3.5,38,0.00,OVC,FEW,0.00,WeatherDisplay:10.37,2013-04-21 21:31:00,
2013-04-21 16:37:00,63.0,36.9,30.18,SW,225,2.2,10.4,38,0.00,OVC,FEW,0.00,WeatherDisplay:10.37,2013-04-21 21:37:00,
2013-04-21 16:42:00,62.4,37.1,30.18,SE,135,3.1,12.7,39,0.00,OVC,FEW,0.00,WeatherDisplay:10.37,2013-04-21 21:42:00,
2013-04-21 16:48:00,62.2,35.6,30.18,East,90,4.5,8.1,37,0.00,OVC,FEW,0.00,WeatherDisplay:10.37,2013-04-21 21:48:00,
2013-04-21 16:54:00,62.1,36.8,30.18,South,180,2.2,8.1,39,0.00,OVC,FEW,0.00,WeatherDisplay:10.37,2013-04-21 21:54:00,
2013-04-21 16:59:00,62.6,36.6,30.18,SE,135,3.1,6.9,38,0.00,OVC,FEW,0.00,WeatherDisplay:10.37,2013-04-21 21:59:00,
2013-04-21 17:05:00,61.9,36.0,30.18,SE,135,3.8,8.1,38,0.00,OVC,FEW,0.00,WeatherDisplay:10.37,2013-04-21 22:05:00,
2013-04-21 17:10:00,61.5,36.3,30.18,South,180,4.5,8.1,39,0.00,OVC,FEW,0.00,WeatherDisplay:10.37,2013-04-21 22:10:00,
2013-04-21 17:16:00,61.7,36.5,30.17,SE,135,4.5,11.5,39,0.00,OVC,FEW,0.00,WeatherDisplay:10.37,2013-04-21 22:16:00,
2013-04-21 17:22:00,61.2,37.3,30.18,SE,135,3.1,9.2,41,0.00,OVC,FEW,0.00,WeatherDisplay:10.37,2013-04-21 22:22:00,
2013-04-21 17:27:00,61.0,37.1,30.17,South,180,2.2,6.9,41,0.00,OVC,FEW,0.00,WeatherDisplay:10.37,2013-04-21 22:27:00,
2013-04-21 17:33:00,61.2,36.6,30.17,SE,135,3.8,6.9,40,0.00,OVC,FEW,0.00,WeatherDisplay:10.37,2013-04-21 22:33:00,
2013-04-21 17:38:00,61.0,36.5,30.17,SE,135,6.9,9.8,40,0.00,OVC,FEW,0.00,WeatherDisplay:10.37,2013-04-21 22:38:00,
2013-04-21 17:44:00,60.8,36.9,30.17,ESE,112,3.1,6.9,41,0.00,OVC,FEW,0.00,WeatherDisplay:10.37,2013-04-21 22:44:00,
2013-04-21 17:50:00,60.8,37.5,30.17,SSW,202,0.7,3.5,42,0.00,OVC,FEW,0.00,WeatherDisplay:10.37,2013-04-21 22:50:00,
2013-04-21 17:55:00,61.0,37.1,30.17,East,90,1.6,5.8,41,0.00,OVC,FEW,0.00,WeatherDisplay:10.37,2013-04-21 22:55:00,
2013-04-21 18:01:00,60.8,37.5,30.17,East,90,0.7,3.5,42,0.00,OVC,FEW,0.00,WeatherDisplay:10.37,2013-04-21 23:01:00,
2013-04-21 18:06:00,60.4,37.2,30.17,South,180,3.1,8.1,42,0.00,OVC,FEW,0.00,WeatherDisplay:10.37,2013-04-21 23:06:00,
2013-04-21 18:12:00,60.4,37.2,30.17,SW,225,4.5,6.9,42,0.00,OVC,FEW,0.00,WeatherDisplay:10.37,2013-04-21 23:12:00,
2013-04-21 18:18:00,59.9,37.3,30.17,East,90,4.5,8.1,43,0.00,OVC,FEW,0.00,WeatherDisplay:10.37,2013-04-21 23:18:00,
2013-04-21 18:23:00,59.4,37.4,30.17,ESE,112,3.1,8.1,44,0.00,OVC,FEW,0.00,WeatherDisplay:10.37,2013-04-21 23:23:00,
2013-04-21 18:29:00,59.0,37.1,30.16,SE,135,5.4,9.2,44,0.00,OVC,FEW,0.00,WeatherDisplay:10.37,2013-04-21 23:29:00,
2013-04-21 18:34:00,58.8,37.5,30.16,South,180,4.5,5.8,45,0.00,OVC,FEW,0.00,WeatherDisplay:10.37,2013-04-21 23:34:00,
2013-04-21 18:40:00,58.6,37.3,30.17,South,180,2.2,4.6,45,0.00,OVC,FEW,0.00,WeatherDisplay:10.37,2013-04-21 23:40:00,
2013-04-21 18:46:00,58.3,36.4,30.16,SSE,158,5.4,8.1,44,0.00,OVC,FEW,0.00,WeatherDisplay:10.37,2013-04-21 23:46:00,
2013-04-21 18:51:00,58.3,37.6,30.16,North,0,1.6,4.6,46,0.00,OVC,FEW,0.00,WeatherDisplay:10.37,2013-04-21 23:51:00,
2013-04-21 18:57:00,57.7,37.1,30.17,ENE,68,2.2,10.4,46,0.00,OVC,FEW,0.00,WeatherDisplay:10.37,2013-04-21 23:57:00,
2013-04-21 19:02:00,57.6,37.5,30.16,SW,225,5.4,13.0,47,0.00,OVC,FEW,0.00,WeatherDisplay:10.37,2013-04-22 00:02:00,
2013-04-21 19:08:00,57.0,37.5,30.16,SE,135,2.2,8.1,48,0.00,OVC,FEW,0.00,WeatherDisplay:10.37,2013-04-22 00:08:00,
2013-04-21 19:14:00,56.8,37.3,30.16,SE,135,2.2,5.8,48,0.00,OVC,FEW,0.00,WeatherDisplay:10.37,2013-04-22 00:14:00,
2013-04-21 19:19:00,56.5,37.5,30.16,South,180,1.6,6.9,49,0.00,OVC,FEW,0.00,WeatherDisplay:10.37,2013-04-22 00:19:00,
2013-04-21 19:25:00,56.1,37.2,30.17,SE,135,4.5,8.3,49,0.00,OVC,FEW,0.00,WeatherDisplay:10.37,2013-04-22 00:25:00,
2013-04-21 19:30:00,55.9,37.6,30.17,SE,135,0.7,3.8,50,0.00,OVC,FEW,0.00,WeatherDisplay:10.37,2013-04-22 00:30:00,
2013-04-21 19:36:00,55.8,37.9,30.17,East,90,3.1,6.0,51,0.00,OVC,FEW,0.00,WeatherDisplay:10.37,2013-04-22 00:36:00,
2013-04-21 19:42:00,55.4,37.6,30.17,South,180,2.2,12.7,51,0.00,OVC,FEW,0.00,WeatherDisplay:10.37,2013-04-22 00:42:00,
2013-04-21 19:47:00,55.4,38.1,30.18,SE,135,3.8,9.2,52,0.00,OVC,FEW,0.00,WeatherDisplay:10.37,2013-04-22 00:47:00,
2013-04-21 19:53:00,55.2,37.9,30.18,South,180,3.8,8.1,52,0.00,OVC,FEW,0.00,WeatherDisplay:10.37,2013-04-22 00:53:00,
2013-04-21 19:58:00,55.0,37.7,30.17,South,180,4.5,9.2,52,0.00,OVC,FEW,0.00,WeatherDisplay:10.37,2013-04-22 00:58:00,
2013-04-21 20:04:00,54.7,37.9,30.18,SE,135,3.1,5.8,53,0.00,OVC,FEW,0.00,WeatherDisplay:10.37,2013-04-22 01:04:00,
2013-04-21 20:10:00,54.5,38.2,30.18,SE,135,1.6,8.1,54,0.00,OVC,FEW,0.00,WeatherDisplay:10.37,2013-04-22 01:10:00,
2013-04-21 20:15:00,54.3,38.0,30.18,SE,135,4.5,8.1,54,0.00,OVC,FEW,0.00,WeatherDisplay:10.37,2013-04-22 01:15:00,
2013-04-21 20:21:00,54.1,38.3,30.18,East,90,4.5,9.2,55,0.00,OVC,FEW,0.00,WeatherDisplay:10.37,2013-04-22 01:21:00,
2013-04-21 20:26:00,54.1,38.3,30.18,South,180,2.2,4.6,55,0.00,OVC,FEW,0.00,WeatherDisplay:10.37,2013-04-22 01:26:00,
2013-04-21 20:32:00,54.0,38.1,30.18,SE,135,2.2,8.1,55,0.00,OVC,FEW,0.00,WeatherDisplay:10.37,2013-04-22 01:32:00,
2013-04-21 20:38:00,54.0,38.1,30.18,East,90,3.1,6.9,55,0.00,OVC,FEW,0.00,WeatherDisplay:10.37,2013-04-22 01:38:00,
2013-04-21 20:43:00,53.8,38.0,30.18,East,90,2.2,8.1,55,0.00,OVC,FEW,0.00,WeatherDisplay:10.37,2013-04-22 01:43:00,
2013-04-21 20:49:00,53.6,37.8,30.18,South,180,2.2,8.1,55,0.00,OVC,FEW,0.00,WeatherDisplay:10.37,2013-04-22 01:49:00,
2013-04-21 20:54:00,53.6,38.3,30.19,SSE,158,2.2,8.1,56,0.00,OVC,FEW,0.00,WeatherDisplay:10.37,2013-04-22 01:54:00,
2013-04-21 21:00:00,53.2,37.9,30.19,SSW,202,2.2,4.6,56,0.00,OVC,FEW,0.00,WeatherDisplay:10.37,2013-04-22 02:00:00,
2013-04-21 21:06:00,53.2,37.9,30.19,East,90,0.7,3.5,56,0.00,OVC,FEW,0.00,WeatherDisplay:10.37,2013-04-22 02:06:00,
2013-04-21 21:11:00,53.1,38.2,30.19,SE,135,3.8,6.9,57,0.00,OVC,FEW,0.00,WeatherDisplay:10.37,2013-04-22 02:11:00,
2013-04-21 21:17:00,52.9,38.1,30.19,East,90,2.2,5.8,57,0.00,OVC,FEW,0.00,WeatherDisplay:10.37,2013-04-22 02:17:00,
2013-04-21 21:22:00,52.7,37.9,30.19,SE,135,1.6,6.9,57,0.00,OVC,FEW,0.00,WeatherDisplay:10.37,2013-04-22 02:22:00,
2013-04-21 21:28:00,52.7,38.3,30.19,East,90,1.6,10.4,58,0.00,OVC,FEW,0.00,WeatherDisplay:10.37,2013-04-22 02:28:00,
2013-04-21 21:34:00,52.7,37.9,30.19,South,180,3.8,10.4,57,0.00,OVC,FEW,0.00,WeatherDisplay:10.37,2013-04-22 02:34:00,
2013-04-21 21:39:00,52.7,37.9,30.19,SE,135,3.1,6.0,57,0.00,OVC,FEW,0.00,WeatherDisplay:10.37,2013-04-22 02:39:00,
2013-04-21 21:45:00,52.7,37.9,30.20,SSE,158,3.8,12.7,57,0.00,OVC,FEW,0.00,WeatherDisplay:10.37,2013-04-22 02:45:00,
2013-04-21 21:50:00,52.7,37.9,30.19,SE,135,2.2,5.8,57,0.00,OVC,FEW,0.00,WeatherDisplay:10.37,2013-04-22 02:50:00,
2013-04-21 21:56:00,52.7,38.3,30.20,East,90,1.6,5.8,58,0.00,OVC,FEW,0.00,WeatherDisplay:10.37,2013-04-22 02:56:00,
2013-04-21 22:02:00,52.5,38.2,30.19,SSE,158,4.5,9.2,58,0.00,OVC,FEW,0.00,WeatherDisplay:10.37,2013-04-22 03:02:00,
2013-04-21 22:07:00,52.3,38.0,30.19,SE,135,3.1,5.8,58,0.00,OVC,FEW,0.00,WeatherDisplay:10.37,2013-04-22 03:07:00,
2013-04-21 22:13:00,52.3,38.0,30.19,SW,225,1.6,8.1,58,0.00,OVC,FEW,0.00,WeatherDisplay:10.37,2013-04-22 03:13:00,
2013-04-21 22:18:00,52.3,38.0,30.19,South,180,3.1,8.3,58,0.00,OVC,FEW,0.00,WeatherDisplay:10.37,2013-04-22 03:18:00,
2013-04-21 22:24:00,52.0,37.7,30.19,East,90,6.0,12.7,58,0.00,OVC,FEW,0.00,WeatherDisplay:10.37,2013-04-22 03:24:00,
2013-04-21 22:30:00,52.0,38.1,30.19,South,180,2.2,8.1,59,0.00,OVC,FEW,0.00,WeatherDisplay:10.37,2013-04-22 03:30:00,
2013-04-21 22:35:00,51.8,37.9,30.19,South,180,3.1,8.1,59,0.00,OVC,FEW,0.00,WeatherDisplay:10.37,2013-04-22 03:35:00,
2013-04-21 22:41:00,51.8,37.9,30.19,SE,135,4.5,8.1,59,0.00,OVC,FEW,0.00,WeatherDisplay:10.37,2013-04-22 03:41:00,
2013-04-21 22:46:00,51.6,38.2,30.18,SE,135,3.8,5.8,60,0.00,OVC,FEW,0.00,WeatherDisplay:10.37,2013-04-22 03:46:00,
2013-04-21 22:52:00,51.6,38.2,30.18,South,180,2.2,8.1,60,0.00,OVC,FEW,0.00,WeatherDisplay:10.37,2013-04-22 03:52:00,
2013-04-21 22:58:00,51.4,38.0,30.18,SE,135,1.6,12.7,60,0.00,OVC,FEW,0.00,WeatherDisplay:10.37,2013-04-22 03:58:00,
2013-04-21 23:01:00,51.6,38.2,30.18,SE,135,3.1,10.4,60,0.00,OVC,FEW,0.00,WeatherDisplay:10.37,2013-04-22 04:01:00,
2013-04-21 23:02:00,51.4,38.0,30.18,SE,135,1.6,5.8,60,0.00,OVC,FEW,0.00,WeatherDisplay:10.37,2013-04-22 04:02:00,
2013-04-21 23:03:00,51.4,38.0,30.18,SE,135,1.6,3.8,60,0.00,OVC,FEW,0.00,WeatherDisplay:10.37,2013-04-22 04:03:00,
2013-04-21 23:06:00,51.4,38.0,30.18,SE,135,1.6,3.8,60,0.00,OVC,FEW,0.00,WeatherDisplay:10.37,2013-04-22 04:06:00,
2013-04-21 23:12:00,51.4,38.0,30.18,East,90,3.8,11.4,60,0.00,OVC,FEW,0.00,WeatherDisplay:10.37,2013-04-22 04:12:00,
2013-04-21 23:18:00,51.4,38.0,30.18,SSE,158,4.5,9.2,60,0.00,OVC,FEW,0.00,WeatherDisplay:10.37,2013-04-22 04:18:00,
2013-04-21 23:23:00,51.3,37.8,30.18,SE,135,3.8,11.5,60,0.00,OVC,FEW,0.00,WeatherDisplay:10.37,2013-04-22 04:23:00,
2013-04-21 23:29:00,51.3,37.8,30.18,South,180,0.7,6.9,60,0.00,OVC,FEW,0.00,WeatherDisplay:10.37,2013-04-22 04:29:00,
2013-04-21 23:34:00,51.3,37.4,30.18,East,90,3.1,8.1,59,0.00,OVC,FEW,0.00,WeatherDisplay:10.37,2013-04-22 04:34:00,
2013-04-21 23:40:00,51.1,37.7,30.18,SSW,202,3.1,9.2,60,0.00,OVC,FEW,0.00,WeatherDisplay:10.37,2013-04-22 04:40:00,
2013-04-21 23:46:00,50.9,37.5,30.18,SSE,158,4.5,8.1,60,0.00,OVC,FEW,0.00,WeatherDisplay:10.37,2013-04-22 04:46:00,
2013-04-21 23:51:00,50.7,37.3,30.17,SE,135,1.6,5.8,60,0.00,OVC,FEW,0.00,WeatherDisplay:10.37,2013-04-22 04:51:00,
2013-04-21 23:57:00,50.7,37.8,30.18,South,180,0.7,5.8,61,0.00,OVC,FEW,0.00,WeatherDisplay:10.37,2013-04-22 04:57:00,